Voltar ao catálogo

STARLINK-32655

AtivoComunicaçõesVLEO
NORAD 62202·PAYLOAD·🇺🇸 United States

Lançado Dec 4, 2024 de Cape Canaveral Space Force Station

Loading…

Próximas Passagens (próximas 24 horas)

TLE

AtualizadoSource: CelesTrak SupGP

Época: Sep 15, 2026, 03:16 UTC

1 62202C 24229L   26258.13659722 -.00002227  00000+0 -80661-4 0  2586
2 62202  42.9999 281.0672 0001369 269.8670  28.2498 15.27575802    15

Acompanhe STARLINK-32655 em tempo real com AllMySat

Download on the App Store